Погода в Вельсе

Австрия     48°09′47″N   14°01′55″E
темп.,
°C
ветер,
м/с
пор.,
м/с
влажн.,
%
обл.,
%
осадки,
мм/ч
давл.,
гПа
погр.,
м
2 марта, вт
вт201:00+2в48850 0.0 1035221
04:00+1в37860 0.0 1034174
07:000в25870 0.0 1035125
10:00+5вюв35730 0.0 1034376
13:00+9вюв34570 0.0 1033498
16:00+11вюв23550 0.0 1032402
19:00+6в12800 0.0 103322
22:00+4всв12870 0.0 103422
3 марта, ср
ср301:00+3в11890 0.0 103422
04:00+2ссз00900 0.0 103322
07:00+1сз11900 0.0 103322
10:00+7з127019 0.0 1031331
13:00+12з345116 0.0 1029627
16:00+12зсз35535 0.0 1027504
19:00+7сз12686 0.0 102822
22:00+6сз11730 0.0 102722
4 марта, чт
чт401:00+4сз117613 0.0 102622
04:00+3зсз117932 0.0 102422
07:00+3зсз128516 0.0 102322
10:00+8зсз246160 0.0 1020373
13:00+12зсз354876 0.0 1017722
16:00+12з3657100 0.0 10151011
19:00+8з2371100 0.0 101548
22:00+8з3678100 0.0 1015160
5 марта, пт
пт501:00+7зюз51184100 1.6 1014871
04:00+7з71387100 0.9 10141018
07:00+6з7128499 3.9 1015820
10:00+6сз478399 0.4 1016752
13:00+6з3583100 1.3 1017625
16:00+4с3589100 2.1 1019484
19:00+2с2786100 4.4 1023770
22:000св2775100 0.3 1027582
6 марта, сб
сб601:00−1св118091 0.3 102932
04:00−2с11800 0.0 103122
07:00−2с11750 0.0 103227
10:00+1всв23510 0.0 10331163
13:00+4в23390 0.0 10311738
16:00+4всв22390 0.0 10301555
19:00−1св12570 0.0 103232
22:00−2всв11580 0.0 103321